Temp
74 78 82 82 82 82 82 83 83 82 82 82 81 82 81 81 81 81 81 81 80 81 81 81 82 81 82 82 82 80 80 80 81 80 79 79 79 80 79 79 79 78 80
77 80 81 82 82 82 82 83 82 82 81 81 81 81 81 81 81 81 80 81 80 81 81 81 81 81 81 81 80 79 80 80 80 79 78 76 77 80 79 78 79 78 80
78 81 81 81 82 82 82 82 82 81 81 81 81 81 81 81 81 80 80 80 80 80 80 80 80 80 80 79 79 79 80 80 79 78 77 72 74 80 79 78 78 79 79
80 80 80 81 81 82 82 82 81 81 81 81 80 81 80 80 80 80 80 80 80 80 80 79 79 79 79 78 78 79 79 79 78 77 73 74 77 80 79 78 78 79 79
80 81 81 81 81 81 81 81 81 81 81 81 81 81 80 80 80 80 80 80 80 79 79 79 78 78 78 78 78 79 79 79 78 75 71 70 69 79 79 78 78 78 78
79 80 80 81 81 81 81 81 81 81 81 81 80 81 80 80 80 80 80 79 79 79 79 78 78 78 78 78 78 78 79 79 76 71 69 71 71 79 79 78 78 78 78
78 79 80 81 81 81 81 81 81 80 80 80 80 80 80 80 80 80 79 79 79 79 79 78 78 78 78 77 78 78 79 78 73 69 69 70 73 78 79 78 78 78 77
78 79 80 80 80 80 81 81 80 80 80 80 80 80 79 80 80 80 79 79 79 79 78 78 78 78 77 77 77 78 78 77 74 70 70 69 77 78 78 78 77 77 78
80 79 79 78 79 79 79 80 80 80 80 80 79 79 79 79 79 79 79 79 79 78 78 78 78 77 77 76 77 77 77 76 69 71 74 70 77 78 78 77 77 77 77
80 78 76 76 76 75 75 79 79 79 79 79 79 78 78 78 78 78 78 78 78 78 78 78 77 77 77 76 77 77 76 75 69 70 69 72 77 78 77 76 76 77 77
79 77 77 76 76 74 74 76 78 79 78 78 77 77 76 72 73 76 76 77 78 78 78 77 77 77 76 76 76 76 75 72 69 69 69 75 77 77 77 76 76 76 76
76 76 77 77 76 76 80 75 73 75 73 73 73 72 71 71 71 76 75 75 77 78 77 77 77 76 75 70 69 73 72 74 70 68 70 75 76 77 76 76 75 75 75
78 77 78 78 77 76 78 74 73 73 72 72 71 71 71 74 70 73 72 73 71 74 72 74 72 71 69 69 70 72 72 70 70 68 72 75 76 76 76 76 75 75 75
74 77 78 77 77 77 76 74 74 72 72 71 72 72 71 68 69 70 70 69 69 69 69 68 67 68 68 72 73 72 73 73 70 67 71 74 75 76 76 76 75 75 75
70 75 75 75 76 76 76 74 74 74 73 73 71 73 71 70 69 69 70 68 68 68 68 67 67 67 66 67 72 72 72 71 71 68 67 73 74 75 76 76 75 75 75
70 71 72 73 72 73 77 74 75 74 71 73 73 72 74 71 70 69 70 69 67 69 68 67 66 64 65 66 70 71 74 73 69 69 69 70 73 74 75 75 75 75 75
68 70 70 73 73 72 72 70 70 71 72 71 70 73 75 72 71 69 69 68 67 68 67 67 65 65 64 67 66 69 73 71 71 70 67 69 68 72 73 74 75 75 75
67 67 68 72 70 71 72 70 69 69 70 69 71 71 73 72 71 69 68 67 67 67 66 65 65 64 65 66 65 66 71 71 69 69 69 68 66 67 69 73 73 74 74
65 65 66 67 68 68 69 69 67 67 67 71 69 68 70 71 73 70 69 67 67 64 64 66 65 65 65 65 66 67 67 69 67 68 67 66 64 64 64 70 71 72 74
63 64 65 66 66 66 65 66 65 67 66 70 68 67 69 69 71 72 68 67 66 64 64 64 65 64 64 65 69 64 62 63 63 63 63 64 65 64 63 65 65 67 72
62 62 63 63 64 65 63 61 59 64 68 64 65 67 68 68 71 70 69 68 67 65 65 66 64 62 63 62 61 59 59 60 61 63 66 64 65 66 63 62 64 65 65
59 59 61 62 64 64 64 63 62 61 64 67 65 66 66 66 67 71 68 66 67 64 64 63 62 60 60 60 58 57 54 57 59 62 64 63 62 65 64 65 62 63 63
56 57 61 61 62 64 64 64 62 59 63 65 65 63 63 66 65 62 65 67 67 66 63 62 61 61 58 59 61 58 52 51 57 60 61 62 59 60 61 61 61 62 62
56 57 58 60 61 64 64 62 59 58 57 62 65 64 65 63 63 65 65 67 67 65 64 63 64 61 60 58 59 63 58 57 52 51 60 60 60 60 60 61 60 60 61
56 55 56 57 59 61 61 62 59 59 60 63 64 60 62 62 64 65 67 68 66 65 65 64 63 62 61 58 58 57 57 56 56 53 51 56 57 57 56 56 57 58 59
54 54 54 55 56 59 59 61 60 59 59 61 62 60 60 62 64 67 66 66 66 66 66 65 63 62 62 61 61 58 57 55 54 53 51 55 54 53 54 54 54 55 56
MSLP
1010.46 1010.31 1010.33 1010.55 1010.79 1010.99 1011.41 1011.58 1011.60 1011.71 1011.77 1012.11 1012.40 1012.52 1012.55 1012.72 1012.79 1012.86 1012.91 1012.83 1012.90 1012.75 1012.72 1012.75 1012.80 1012.80 1012.70 1012.67 1012.53 1012.55 1012.42 1012.33 1012.20 1012.19 1012.18 1012.00 1011.77 1011.51 1011.23 1010.84 1010.47 1009.99 1009.56
1010.01 1010.26 1010.40 1010.52 1010.70 1011.03 1011.22 1011.52 1011.70 1011.85 1011.99 1012.21 1012.44 1012.60 1012.70 1012.78 1012.82 1012.94 1013.02 1013.05 1013.05 1012.95 1012.89 1012.91 1012.95 1013.00 1013.02 1012.90 1012.92 1012.88 1012.75 1012.55 1012.51 1012.54 1012.43 1012.18 1011.98 1011.63 1011.43 1011.12 1010.70 1010.14 1009.85
1009.80 1010.21 1010.45 1010.63 1010.76 1011.03 1011.30 1011.67 1011.84 1011.96 1012.11 1012.24 1012.36 1012.49 1012.75 1012.84 1012.89 1012.95 1013.09 1013.12 1013.13 1013.13 1013.16 1013.15 1013.29 1013.33 1013.30 1013.18 1013.12 1013.08 1012.96 1012.80 1012.78 1012.57 1012.46 1012.35 1012.06 1011.70 1011.50 1011.36 1011.00 1010.48 1010.12
1009.30 1009.79 1010.23 1010.43 1010.57 1010.85 1011.03 1011.31 1011.63 1011.87 1012.08 1012.31 1012.42 1012.48 1012.65 1012.82 1012.90 1013.06 1013.10 1013.09 1013.16 1013.17 1013.24 1013.31 1013.45 1013.47 1013.46 1013.33 1013.34 1013.17 1013.12 1013.02 1012.96 1012.94 1012.84 1012.67 1012.13 1011.85 1011.72 1011.50 1011.18 1010.83 1010.45
1009.74 1009.86 1010.23 1010.49 1010.65 1010.88 1011.04 1011.29 1011.50 1011.63 1011.77 1012.04 1012.30 1012.45 1012.61 1012.75 1012.92 1013.06 1013.12 1013.15 1013.22 1013.27 1013.31 1013.44 1013.59 1013.63 1013.55 1013.43 1013.44 1013.26 1013.26 1013.32 1013.20 1013.23 1013.17 1012.96 1012.66 1012.18 1012.00 1011.79 1011.37 1010.99 1010.63
1009.89 1009.96 1010.32 1010.65 1010.88 1011.15 1011.30 1011.45 1011.66 1011.85 1011.89 1011.88 1012.02 1012.10 1012.36 1012.57 1012.70 1012.88 1013.16 1013.12 1013.30 1013.33 1013.41 1013.54 1013.73 1013.75 1013.70 1013.53 1013.31 1013.31 1013.26 1013.37 1013.60 1013.62 1013.59 1013.26 1012.82 1012.36 1012.34 1011.94 1011.64 1011.22 1010.90
1009.64 1009.69 1010.00 1010.52 1010.89 1011.19 1011.35 1011.45 1011.57 1011.72 1011.75 1011.75 1011.95 1012.21 1012.37 1012.62 1012.64 1012.74 1012.81 1012.99 1013.22 1013.19 1013.31 1013.56 1013.74 1013.76 1013.83 1013.70 1013.45 1013.50 1013.30 1013.51 1013.86 1013.77 1013.82 1013.46 1013.02 1012.67 1012.49 1012.36 1011.98 1011.64 1011.24
1008.89 1009.30 1009.60 1009.91 1010.21 1010.58 1010.92 1011.29 1011.47 1011.62 1011.86 1011.97 1011.94 1011.85 1012.03 1012.24 1012.56 1012.69 1012.96 1012.98 1013.08 1013.05 1013.29 1013.55 1013.54 1013.79 1013.80 1013.72 1013.55 1013.60 1013.68 1013.81 1013.91 1013.90 1013.93 1013.67 1013.33 1013.01 1012.74 1012.70 1012.38 1012.04 1011.50
1008.70 1009.23 1009.43 1009.81 1010.07 1010.37 1010.62 1010.92 1011.05 1011.24 1011.39 1011.66 1012.06 1012.20 1012.27 1012.13 1012.22 1012.28 1012.57 1012.80 1013.12 1013.11 1013.22 1013.40 1013.57 1013.77 1013.80 1013.76 1013.55 1013.53 1013.71 1013.93 1013.94 1013.86 1013.98 1013.91 1013.58 1013.19 1013.22 1013.01 1012.87 1012.38 1011.85
1008.65 1008.97 1009.43 1009.69 1009.91 1010.17 1010.48 1010.70 1010.87 1011.13 1011.35 1011.54 1011.73 1011.82 1012.19 1012.26 1012.38 1012.31 1012.34 1012.50 1012.56 1012.88 1013.08 1013.31 1013.59 1013.67 1013.79 1013.72 1013.56 1013.48 1013.96 1014.10 1013.99 1013.96 1014.20 1014.11 1013.91 1013.58 1013.55 1013.33 1013.28 1012.76 1012.26
1008.43 1008.71 1009.08 1009.40 1009.53 1009.88 1010.29 1010.60 1010.87 1010.99 1011.14 1011.26 1011.49 1011.75 1011.84 1011.97 1012.19 1012.50 1012.47 1012.35 1012.50 1012.68 1012.97 1013.10 1013.33 1013.43 1013.67 1013.62 1013.50 1013.45 1013.98 1014.19 1014.06 1014.24 1014.28 1014.23 1014.11 1013.98 1013.80 1013.74 1013.47 1013.13 1012.87
1007.94 1008.18 1008.27 1008.62 1008.90 1009.19 1009.55 1010.06 1010.43 1010.65 1010.94 1011.12 1011.36 1011.57 1011.79 1011.96 1011.91 1011.74 1012.05 1012.31 1012.32 1012.53 1012.91 1013.17 1013.21 1013.30 1013.39 1013.61 1013.47 1013.43 1013.73 1014.05 1014.14 1014.20 1014.27 1014.28 1014.27 1014.23 1014.07 1013.98 1013.84 1013.60 1013.30
1007.62 1007.56 1007.69 1008.00 1008.35 1008.78 1009.21 1009.52 1009.94 1010.12 1010.41 1010.81 1011.07 1011.24 1011.46 1011.54 1011.68 1011.88 1011.82 1011.68 1012.21 1012.42 1012.70 1013.03 1013.11 1013.08 1013.26 1013.49 1013.42 1013.07 1013.47 1013.96 1014.23 1014.21 1014.22 1014.30 1014.39 1014.39 1014.29 1014.23 1014.07 1014.02 1013.74
1007.77 1007.58 1007.38 1007.76 1008.09 1008.20 1008.30 1008.94 1009.29 1009.97 1010.19 1010.37 1010.55 1010.72 1011.17 1011.45 1011.54 1011.59 1011.91 1011.88 1012.11 1012.39 1012.70 1013.04 1013.11 1013.06 1013.37 1013.24 1012.94 1012.98 1013.53 1013.98 1014.17 1014.45 1014.21 1014.29 1014.40 1014.56 1014.47 1014.40 1014.32 1014.24 1014.08
1008.46 1007.98 1007.44 1007.22 1007.78 1008.17 1008.27 1008.69 1009.05 1009.57 1009.98 1010.07 1010.37 1010.48 1010.78 1011.12 1011.39 1011.27 1011.50 1011.69 1011.85 1012.04 1012.38 1012.87 1012.99 1013.09 1013.23 1013.14 1012.56 1013.05 1013.26 1013.76 1013.84 1014.50 1014.50 1014.25 1014.49 1014.69 1014.64 1014.62 1014.55 1014.45 1014.40
1008.90 1008.80 1008.37 1008.12 1007.84 1007.79 1007.87 1007.83 1008.51 1008.84 1009.02 1009.04 1009.43 1009.63 1009.58 1010.12 1010.81 1011.14 1010.98 1011.26 1011.44 1011.44 1011.94 1012.35 1012.83 1013.01 1013.02 1013.09 1012.69 1012.91 1012.93 1013.27 1013.95 1014.13 1014.53 1014.60 1014.40 1014.62 1014.77 1014.87 1014.79 1014.68 1014.61
1009.18 1009.35 1009.16 1008.67 1008.26 1008.10 1008.08 1007.94 1008.18 1008.63 1008.89 1008.91 1009.22 1009.26 1008.94 1009.50 1009.90 1010.85 1010.94 1010.95 1011.18 1011.23 1011.80 1012.22 1012.52 1012.73 1013.01 1013.20 1013.25 1013.56 1012.90 1013.11 1013.57 1013.94 1014.46 1014.77 1014.75 1014.77 1014.85 1014.91 1014.98 1015.00 1014.89
1009.27 1009.57 1009.94 1009.66 1009.10 1008.43 1008.19 1008.59 1007.66 1008.31 1008.72 1008.57 1008.61 1008.66 1008.84 1009.03 1009.43 1010.28 1010.41 1010.68 1010.80 1011.14 1011.55 1012.03 1012.54 1012.67 1012.90 1013.40 1013.62 1013.46 1013.23 1013.07 1013.27 1013.88 1014.48 1014.72 1014.96 1015.06 1014.99 1014.98 1015.12 1015.24 1015.26
1009.95 1009.93 1009.90 1010.10 1009.81 1009.33 1008.85 1008.42 1008.30 1008.06 1007.93 1007.99 1008.78 1008.37 1008.54 1008.74 1008.90 1009.15 1009.75 1010.20 1010.46 1011.29 1011.62 1012.06 1012.29 1012.20 1012.67 1012.99 1013.62 1013.17 1013.45 1013.25 1013.74 1013.97 1014.47 1014.75 1014.93 1015.23 1015.30 1015.09 1015.26 1015.39 1015.45
1010.38 1010.50 1010.26 1009.90 1009.82 1009.74 1009.20 1008.82 1008.17 1007.97 1007.53 1007.97 1008.03 1007.82 1007.94 1008.11 1008.69 1008.73 1008.29 1009.27 1009.97 1010.94 1011.68 1011.97 1012.17 1012.22 1012.24 1012.87 1013.10 1013.38 1013.44 1013.87 1014.22 1014.38 1014.71 1014.86 1014.77 1015.20 1015.34 1015.39 1015.47 1015.59 1015.62
1010.92 1011.01 1010.76 1010.39 1009.82 1009.30 1009.17 1009.43 1009.11 1008.42 1007.58 1007.50 1007.12 1006.81 1007.04 1007.58 1008.11 1008.16 1008.69 1008.35 1009.22 1010.44 1011.07 1011.56 1012.08 1012.52 1012.44 1012.44 1012.81 1013.72 1014.24 1014.38 1014.37 1014.44 1014.83 1015.04 1014.99 1015.00 1015.40 1015.54 1015.61 1015.74 1015.97
1011.54 1011.60 1011.21 1010.57 1009.96 1009.42 1009.20 1008.89 1008.62 1008.16 1007.43 1006.93 1006.63 1006.54 1006.78 1007.65 1008.67 1008.94 1008.52 1008.91 1009.09 1009.68 1010.96 1011.36 1011.77 1012.19 1012.49 1012.31 1013.28 1013.84 1014.71 1015.17 1014.99 1014.96 1015.14 1015.27 1015.33 1015.14 1015.34 1015.49 1015.97 1016.04 1016.12
1011.93 1011.73 1011.13 1010.64 1009.99 1009.47 1009.11 1008.62 1008.19 1007.60 1006.86 1006.52 1006.68 1006.65 1006.70 1007.48 1008.17 1009.08 1006.42 1009.41 1008.94 1009.21 1010.26 1010.92 1011.42 1011.73 1012.47 1012.78 1012.81 1013.43 1014.36 1014.89 1015.28 1015.52 1015.48 1015.43 1015.64 1015.77 1015.82 1015.81 1016.34 1016.41 1016.37
1012.22 1011.80 1011.54 1010.73 1010.06 1009.41 1009.11 1008.73 1008.38 1007.84 1007.13 1006.20 1006.05 1005.76 1006.33 1006.75 1007.28 1006.80 1007.89 1009.17 1009.08 1009.13 1009.77 1010.38 1010.67 1011.19 1011.89 1013.09 1013.25 1013.05 1013.40 1013.88 1014.96 1015.98 1015.69 1015.90 1016.17 1016.31 1016.50 1016.46 1016.77 1016.84 1016.82
1012.51 1012.16 1011.73 1010.78 1010.09 1009.51 1009.20 1008.77 1008.40 1007.64 1006.90 1005.93 1005.64 1005.66 1006.23 1006.29 1006.68 1007.15 1007.37 1008.28 1008.91 1008.83 1009.82 1010.17 1010.62 1011.11 1011.66 1012.32 1012.85 1013.41 1013.88 1014.14 1014.34 1015.15 1015.81 1016.23 1016.80 1017.20 1017.32 1017.45 1017.38 1017.35 1017.27
1012.72 1012.56 1011.63 1010.86 1010.18 1009.55 1009.18 1008.46 1008.19 1007.84 1007.00 1006.10 1005.55 1005.53 1005.53 1006.12 1007.02 1007.45 1008.39 1008.29 1008.44 1008.68 1009.46 1010.50 1010.47 1010.93 1011.56 1011.86 1012.38 1012.85 1013.70 1014.29 1014.62 1014.77 1015.47 1016.19 1017.02 1017.98 1018.12 1018.13 1018.17 1018.09 1017.75
Wind_Speed
3 7 13 14 13 13 11 9 7 10 13 12 9 6 9 8 8 8 8 9 10 10 12 13 13 12 12 12 12 10 11 15 19 13 17 17 17 17 18 18 18 13 20
11 9 14 15 15 14 13 10 11 11 11 10 8 8 9 8 8 8 8 8 9 10 12 13 12 13 11 11 10 9 14 17 17 18 13 11 15 16 18 19 19 16 21
14 11 11 14 14 14 13 11 9 9 10 9 8 10 10 9 8 8 7 7 8 9 12 13 12 11 10 8 8 9 13 13 16 17 16 7 5 17 17 18 19 19 20
16 13 11 15 15 14 14 12 11 10 11 9 7 11 9 8 8 7 8 8 7 11 11 12 11 10 8 7 7 9 13 12 15 16 7 9 9 18 17 17 17 18 19
12 12 11 14 14 13 12 12 11 11 13 11 9 9 9 9 7 7 7 7 7 10 10 11 10 9 8 6 6 9 12 13 14 11 6 6 5 14 17 17 14 16 19
11 11 14 14 12 12 11 11 10 9 13 12 10 11 10 9 10 9 7 7 6 8 10 10 8 8 6 5 6 8 11 12 10 7 6 7 5 15 18 19 19 19 20
8 10 14 16 14 12 11 11 11 11 12 12 11 9 8 8 10 10 10 9 7 8 9 9 8 7 5 5 6 10 16 15 5 6 6 6 8 17 17 17 18 18 19
14 13 13 17 17 14 13 11 11 12 11 11 10 11 10 11 10 10 10 9 8 8 8 9 8 7 5 3 5 7 11 10 7 7 6 5 12 14 18 17 18 18 20
13 12 10 11 12 14 11 12 11 12 12 12 10 9 8 10 11 12 12 11 8 7 8 7 8 7 5 0 4 6 8 9 6 6 6 3 13 16 17 17 18 19 20
11 12 11 9 8 6 6 14 13 11 11 11 10 9 8 7 9 11 13 12 12 10 8 7 5 8 6 4 5 5 6 9 5 7 4 4 12 15 16 17 17 17 20
9 12 11 11 10 8 7 7 12 12 12 12 10 10 9 5 6 7 9 13 13 12 10 9 7 8 8 6 7 7 6 3 4 4 3 10 12 14 14 15 16 18 20
9 11 13 13 12 11 10 9 8 8 5 5 5 6 4 6 6 9 10 14 15 14 12 10 9 8 8 3 3 7 3 6 3 4 4 11 11 12 14 14 16 17 18
10 7 12 14 14 13 10 7 5 5 5 5 7 7 7 6 4 6 4 6 4 10 4 6 5 4 5 4 5 4 2 6 3 3 7 11 10 10 12 13 15 15 17
5 9 7 8 11 12 8 8 9 6 6 6 7 9 6 3 4 5 5 4 4 3 5 4 3 3 3 7 8 4 5 5 4 2 7 12 10 9 11 12 14 15 15
8 8 6 8 7 8 9 6 7 8 7 7 6 7 5 5 5 4 5 6 5 5 5 5 4 3 3 3 2 2 6 7 8 2 2 12 11 8 9 11 12 14 15
8 9 10 6 5 7 8 8 7 7 6 8 6 6 9 7 5 4 5 6 5 6 5 5 5 4 2 4 3 3 7 9 7 8 4 4 12 9 8 9 11 13 14
7 7 9 10 6 6 6 3 3 2 4 4 3 7 9 5 6 6 4 4 4 6 6 5 4 3 3 3 6 4 4 8 9 8 5 3 5 9 8 8 10 11 13
11 12 9 10 9 8 5 4 2 4 4 4 6 6 6 7 7 6 5 4 5 4 5 5 6 4 4 2 3 4 4 7 8 7 5 4 3 3 4 7 7 10 11
9 13 13 9 10 9 8 4 6 8 6 5 4 2 2 4 8 8 5 4 6 4 4 6 5 6 5 5 5 3 2 6 5 5 6 5 5 4 3 7 7 8 10
9 8 11 10 8 9 5 5 5 7 6 7 8 6 7 5 7 9 8 8 7 6 4 4 5 4 5 6 6 5 5 4 4 5 5 3 4 4 4 4 4 4 7
9 9 9 11 12 9 5 3 3 4 7 5 6 9 9 10 10 11 8 10 8 7 8 7 4 5 2 5 5 4 4 4 5 4 4 4 3 5 5 4 3 3 2
7 8 9 9 11 9 7 6 3 4 4 5 8 10 9 2 8 8 7 7 8 8 7 6 5 4 3 1 4 3 3 3 3 3 4 3 3 3 2 3 3 3 4
6 7 9 9 10 10 10 8 6 5 4 3 7 7 5 7 8 10 13 5 8 7 7 5 4 6 4 1 3 5 3 3 3 2 2 3 5 4 4 4 4 3 3
7 7 8 7 10 10 11 9 10 5 6 4 4 5 10 11 12 14 13 10 10 6 9 7 6 5 6 4 2 1 2 5 4 2 1 4 6 7 5 5 4 4 4
8 8 8 7 8 11 12 10 7 11 7 8 3 8 12 9 11 9 13 15 11 7 8 7 7 6 4 4 4 2 2 3 3 4 3 4 6 6 6 6 6 6 6
8 9 8 8 6 9 12 14 11 13 12 10 1 5 5 5 3 5 2 7 10 10 10 6 5 7 5 5 3 4 4 3 2 3 4 4 6 4 6 6 6 5 5
Wind_Direction
143 151 151 148 142 136 132 129 124 123 113 109 123 130 117 109 98 95 84 79 69 69 84 82 76 72 63 59 60 49 37 29 45 97 51 36 32 29 29 27 26 21 27
139 146 146 144 143 143 140 138 128 119 115 127 142 139 128 122 105 95 89 81 72 84 88 83 75 64 62 57 55 43 40 51 59 65 52 40 26 32 27 25 27 29 24
142 146 146 145 145 148 147 150 142 136 139 144 158 151 151 136 121 109 104 93 79 87 83 82 75 71 67 65 53 38 39 57 53 52 41 28 31 37 35 25 24 27 24
146 149 154 158 156 158 157 159 161 161 160 153 155 150 139 140 132 125 117 110 99 101 93 88 81 78 71 62 41 34 40 79 70 59 38 19 16 43 35 31 26 24 23
141 149 160 162 162 163 163 166 169 169 159 161 162 162 157 156 150 140 130 124 110 113 109 98 95 86 75 57 31 38 43 81 72 63 37 26 12 36 38 37 37 31 30
153 151 156 165 167 169 166 176 172 176 164 167 168 164 169 174 170 156 146 134 124 124 117 108 106 97 77 51 25 26 38 88 69 60 39 15 7 47 42 40 38 33 31
148 152 156 164 173 171 171 176 186 180 182 178 171 170 175 186 184 174 159 153 157 140 134 127 120 102 77 37 18 29 37 96 93 68 41 12 29 45 38 37 40 40 39
150 157 162 161 162 168 178 188 208 189 201 182 181 176 180 187 200 181 172 163 171 157 133 144 132 121 102 27 1 30 45 81 90 76 44 20 42 37 48 43 41 39 42
149 149 156 164 168 171 178 187 184 190 186 179 189 195 198 196 191 183 180 172 182 171 151 144 154 141 131 68 328 350 37 84 88 75 54 21 44 51 49 49 39 42 45
154 154 158 164 167 168 179 197 187 182 180 184 188 188 195 204 203 195 183 183 180 182 170 163 167 158 159 204 265 293 44 103 99 85 62 50 51 53 50 50 45 38 47
154 164 168 174 179 176 180 190 189 191 190 192 195 201 198 193 206 208 195 189 187 184 182 179 180 177 185 217 256 270 76 119 111 87 86 64 59 54 53 54 51 50 48
182 177 175 178 179 180 185 183 187 192 193 192 194 202 203 212 213 200 197 203 190 184 184 189 186 191 192 219 255 273 127 128 127 117 104 76 66 62 68 58 58 54 50
216 184 180 180 183 181 195 180 188 189 187 195 201 205 212 218 213 210 205 194 187 187 175 184 188 198 202 215 247 234 141 133 148 115 106 90 75 67 76 67 64 58 57
216 221 199 183 184 189 180 176 187 183 192 196 208 211 203 213 218 185 183 172 164 177 174 176 207 199 234 238 238 259 110 136 118 142 119 104 89 74 78 78 72 67 63
40 337 241 180 184 184 181 182 187 187 192 198 207 210 192 203 206 181 180 174 183 174 178 181 194 193 233 274 197 277 147 148 132 151 111 118 109 90 85 84 82 77 69
12 16 11 315 258 208 196 178 184 182 195 186 199 199 189 181 177 200 181 185 189 174 177 166 172 181 211 269 43 325 150 141 144 136 136 124 123 112 100 96 92 86 80
10 30 10 2 305 270 244 143 106 248 225 194 201 210 196 183 187 188 210 184 167 175 159 148 154 134 98 355 330 317 148 144 148 136 136 134 119 116 115 114 107 97 90
19 16 24 4 348 344 268 298 227 231 223 204 210 201 206 189 191 204 188 188 168 160 151 147 161 147 150 167 278 262 154 146 133 139 129 128 130 122 125 125 123 109 100
31 10 3 8 352 341 322 258 221 239 216 218 238 176 139 243 205 183 169 163 155 145 161 168 171 153 170 172 220 106 83 81 113 119 136 152 148 149 160 123 132 122 110
41 16 352 345 356 342 321 312 308 261 253 235 197 188 189 191 214 207 165 160 154 150 172 169 162 170 166 181 141 91 73 87 105 107 104 133 158 154 155 118 130 107 119
25 5 347 343 333 346 339 322 251 286 243 220 200 190 196 227 230 190 196 160 153 155 182 174 162 177 130 184 101 68 55 46 70 77 89 79 116 151 162 150 147 127 125
20 344 334 339 336 335 334 315 283 258 245 219 206 206 203 243 18 269 192 172 162 148 165 170 172 155 93 65 121 100 119 19 33 48 101 101 84 105 165 124 64 134 119
359 339 345 332 334 330 331 328 314 285 263 190 206 206 181 116 102 72 355 229 166 157 147 156 144 120 127 57 105 140 112 161 124 23 59 103 62 60 74 72 99 105 111
333 326 321 330 339 337 332 332 324 306 284 238 235 171 160 156 166 163 183 235 180 159 162 161 147 143 126 145 65 74 74 139 146 119 75 68 71 58 59 54 62 53 52
335 321 309 324 343 340 330 327 327 323 303 281 182 172 164 192 190 193 185 186 172 159 166 153 146 141 132 140 142 128 86 52 97 135 133 117 67 47 43 42 41 37 23
324 315 322 320 326 339 335 327 329 324 317 312 226 181 192 161 151 169 301 180 170 153 156 167 149 142 164 138 125 121 140 147 174 134 112 117 116 52 49 43 31 15 18